GFSSE_925_thetae_000.txt.gz
Theta_e
329 330 327 326 326 328 330 335 325 319 319 319 320 320 322 324 326 330 331 332 332 332 331 334 335 335 339 341 341 342 341 340 341 342 340 343 345 345 346 346 346 345 344
328 330 329 326 327 331 334 330 322 321 321 321 321 323 322 324 327 329 331 332 333 332 332 332 334 335 338 339 340 341 342 340 342 343 341 343 345 344 345 345 344 344 343
322 326 326 325 328 328 327 325 324 323 323 324 324 324 323 325 327 329 331 332 332 333 332 332 334 335 336 337 339 339 340 340 342 343 342 345 344 344 342 341 343 342 342
320 319 323 325 326 326 326 325 326 328 329 328 327 324 324 325 327 328 329 330 330 332 332 331 332 333 335 337 338 338 339 340 339 343 342 343 341 340 339 339 343 340 340
316 316 319 319 323 327 334 333 329 330 330 329 328 325 324 325 327 328 328 329 330 330 330 330 332 332 333 336 335 339 338 340 343 343 342 339 335 336 337 339 341 341 339
315 315 317 322 327 328 334 334 332 331 330 328 327 327 325 325 326 327 327 327 329 330 329 331 331 331 332 334 336 339 338 339 344 342 340 340 342 335 337 338 340 338 339
314 315 320 324 328 335 334 332 330 328 326 325 325 325 326 325 326 326 326 326 327 328 329 329 332 331 332 335 335 337 337 338 342 341 339 342 333 333 338 339 339 338 339
317 318 317 321 324 325 327 327 325 325 324 324 324 324 326 326 326 325 327 326 325 326 329 328 330 331 331 333 330 335 336 337 340 339 338 337 336 334 337 339 337 336 337
313 315 316 315 316 323 327 321 319 320 324 326 324 325 326 325 326 326 324 326 326 326 328 329 330 330 332 331 330 333 336 337 338 339 338 339 340 336 340 338 336 337 338
315 318 319 317 317 319 318 318 320 321 322 324 323 323 324 324 324 326 326 325 326 326 328 329 331 332 330 331 330 331 337 338 337 338 337 336 340 337 340 337 335 337 338
319 320 321 319 318 318 319 319 320 319 320 322 320 320 320 320 321 322 324 324 326 326 328 329 331 332 332 330 329 330 337 338 336 336 339 336 337 333 333 333 336 337 337
320 320 320 319 318 319 319 320 319 319 320 319 319 319 318 316 317 320 322 323 325 326 328 329 331 332 333 330 329 333 338 336 336 338 338 336 335 338 339 337 338 337 335
319 319 318 319 319 321 320 320 319 319 318 318 318 319 319 320 317 320 321 322 323 325 327 329 331 332 331 330 329 336 336 333 335 338 337 333 332 341 339 339 337 335 334
319 319 318 319 321 321 320 320 320 319 318 319 318 319 320 319 320 316 318 322 323 323 325 326 326 328 329 330 330 335 334 335 336 337 335 338 339 340 339 339 336 334 334
318 319 318 319 320 322 320 322 322 321 320 321 320 321 320 321 321 318 319 320 320 323 324 325 326 327 328 330 329 334 333 334 335 334 335 335 339 339 339 337 338 336 335
318 318 318 320 321 321 321 322 322 322 321 321 321 320 321 321 322 322 322 321 322 323 324 325 326 326 327 330 329 333 334 333 335 333 333 332 331 334 338 337 338 337 337
318 318 318 322 322 322 321 322 323 322 321 322 320 320 320 321 322 323 323 323 323 324 324 325 325 325 327 330 331 333 334 332 333 334 332 329 328 338 335 336 336 336 337
318 319 320 323 323 322 322 324 324 324 323 323 323 323 323 323 323 323 323 323 323 324 325 326 325 326 327 331 334 334 333 332 334 334 329 330 333 337 335 335 336 335 336
318 318 322 323 324 325 324 324 325 325 325 324 324 324 324 324 324 324 324 324 323 324 325 325 326 326 328 331 331 332 332 334 333 332 330 331 334 332 333 335 335 335 335
319 318 318 322 323 323 324 325 325 325 325 324 324 324 324 324 325 325 325 325 325 326 325 326 326 326 329 331 332 333 332 333 333 332 332 331 331 330 331 332 333 334 335
321 319 318 322 323 323 323 324 325 325 326 325 324 324 322 323 324 324 322 321 324 326 327 326 326 328 330 331 331 331 331 331 330 328 329 332 329 329 331 334 334 333 334
319 321 317 320 322 323 324 324 325 326 325 325 324 324 324 325 323 325 325 325 327 327 327 327 328 329 330 330 330 330 330 329 330 330 331 332 332 331 331 332 333 333 333
318 318 320 315 316 317 325 325 325 326 326 326 321 325 327 324 325 327 327 327 328 327 328 328 329 330 330 330 330 330 331 332 326 327 332 332 332 332 331 331 332 332 332
321 318 317 317 317 317 325 326 326 326 326 326 326 326 326 327 327 327 327 327 327 328 328 328 329 330 330 329 330 330 330 329 327 327 327 330 331 330 331 331 331 332 331
322 320 320 320 319 319 326 325 325 325 326 327 326 326 325 326 326 326 326 326 327 327 326 328 329 329 329 329 329 328 328 327 327 327 325 321 328 329 330 330 331 331 332
323 321 320 324 319 322 325 323 320 321 321 325 327 326 323 324 325 326 327 327 327 328 328 328 327 328 329 329 328 328 327 327 326 325 325 319 319 321 325 326 329 329 329

GFSSE_925_thetae_003.txt.gz
Theta_e
333 330 326 327 327 327 328 330 332 330 323 323 322 322 319 322 324 326 330 331 333 334 333 332 336 336 339 340 342 343 344 342 342 342 341 341 344 345 345 346 345 348 344
328 330 328 327 326 327 327 328 330 325 324 328 328 327 325 324 324 327 329 331 334 335 333 333 335 336 337 339 341 342 343 341 342 342 341 342 345 345 344 345 345 346 344
323 325 329 329 328 327 325 326 328 325 325 330 329 328 326 325 325 327 330 332 333 334 335 333 334 336 336 336 340 341 342 341 339 342 341 342 345 344 343 341 343 341 341
322 322 324 327 326 323 325 329 328 327 329 331 330 329 328 326 326 328 330 331 332 333 334 334 333 335 336 337 338 339 340 341 341 340 342 343 345 340 337 337 339 340 340
320 318 318 321 320 321 326 326 325 326 330 331 331 330 329 327 326 328 329 330 331 331 332 334 332 333 334 336 337 340 339 340 340 341 342 342 340 337 336 338 339 338 338
317 317 318 321 325 324 330 330 326 328 330 331 330 330 330 329 327 327 328 329 330 331 332 331 333 332 333 335 336 338 339 340 340 342 341 340 337 332 332 332 337 337 338
316 316 318 321 324 327 332 336 328 329 329 328 328 328 328 328 328 327 328 328 328 329 330 332 332 332 332 333 334 333 340 339 343 342 341 339 336 334 332 335 336 335 337
317 318 319 319 322 324 327 330 329 329 328 328 329 327 326 326 327 328 328 327 327 327 328 330 329 330 332 331 331 330 339 340 342 341 341 342 334 333 333 338 337 336 338
313 314 316 318 318 318 326 329 325 320 324 324 326 326 327 327 327 325 327 327 328 327 327 328 332 329 331 332 331 330 338 339 340 338 340 336 334 337 333 337 334 336 337
315 318 319 319 317 317 318 318 319 320 320 324 325 326 325 325 327 327 326 324 323 328 328 328 331 330 330 331 329 329 337 339 340 337 338 338 332 333 336 336 334 334 336
317 318 320 320 319 317 318 320 320 320 320 321 322 322 321 324 324 324 325 326 322 327 328 329 331 331 329 330 329 329 337 339 340 339 337 337 337 337 330 331 335 335 336
320 321 319 318 317 317 320 320 320 320 321 320 321 321 322 323 321 319 322 322 323 327 328 329 330 330 329 332 330 329 337 339 341 341 339 336 338 336 335 337 335 336 337
321 320 320 317 318 320 321 321 322 321 319 319 319 319 320 321 321 321 321 323 324 326 327 329 329 331 334 332 332 333 337 339 341 341 338 336 337 332 331 336 335 337 338
320 319 319 318 319 320 321 322 324 321 320 321 320 320 319 319 320 321 321 323 325 326 326 328 330 331 333 332 332 335 337 339 339 341 338 336 335 331 335 337 339 338 336
320 320 320 319 320 321 321 322 323 323 322 321 321 320 320 320 321 320 320 322 323 323 325 327 326 328 330 331 332 335 337 338 340 339 337 335 334 337 336 335 337 338 334
321 321 320 322 321 322 322 322 323 322 321 321 321 321 320 321 322 322 321 320 320 324 326 325 326 328 329 331 332 335 335 338 339 339 335 333 338 331 337 339 339 336 336
322 321 321 323 324 323 322 323 324 323 322 322 322 319 320 321 322 322 324 323 324 325 323 323 326 326 328 331 332 334 335 337 337 338 338 339 339 337 334 339 336 336 336
321 322 321 324 325 325 325 324 324 324 324 324 323 323 322 322 322 323 325 324 325 325 324 326 326 326 328 331 331 333 333 335 333 333 334 332 333 331 336 337 335 336 334
320 321 321 322 324 323 323 325 325 325 325 325 324 325 325 325 325 325 325 325 323 324 326 327 328 327 329 329 330 333 333 333 334 334 329 329 329 331 332 334 335 335 336
319 318 319 322 323 323 323 325 326 325 326 324 323 323 323 323 324 325 325 323 322 326 327 327 328 328 330 330 333 333 333 334 333 330 331 329 331 331 332 334 334 335 335
322 322 319 322 322 321 325 325 325 327 325 325 323 321 322 323 324 326 326 327 327 326 327 328 328 329 330 332 332 332 333 334 332 331 333 334 331 331 331 332 332 332 332
321 319 322 318 318 316 324 325 324 325 325 324 323 324 323 323 324 325 325 325 326 327 327 329 329 330 331 331 332 331 331 331 332 333 333 332 331 331 330 330 331 332 332
321 320 322 317 316 316 324 326 326 327 326 325 325 325 326 325 326 324 325 326 326 327 328 329 329 330 330 332 332 332 333 332 329 331 332 329 329 329 329 331 332 333 332
322 319 318 319 318 320 325 327 328 328 328 326 325 326 327 326 326 325 327 326 327 327 328 329 328 328 330 331 332 331 330 330 330 329 326 330 330 331 330 332 332 331 332
323 323 321 323 319 324 325 324 326 326 327 326 327 326 327 327 327 326 327 326 327 327 327 329 328 328 330 331 330 330 330 328 328 331 327 324 330 331 330 331 331 333 333
323 323 322 325 319 324 325 323 323 323 325 328 328 327 326 324 325 328 327 327 326 326 327 329 330 329 330 330 330 329 329 330 329 329 327 323 321 325 330 330 329 330 330

GFSSE_925_thetae_006.txt.gz
Theta_e
336 332 331 327 328 328 329 333 334 333 333 331 327 323 322 319 319 325 327 330 332 334 335 334 334 337 336 341 343 343 344 342 343 343 344 341 344 345 346 345 345 348 345
331 331 329 326 328 329 330 331 331 327 332 332 330 329 326 322 322 325 327 330 332 334 336 334 333 337 337 339 342 342 343 343 342 342 342 341 343 345 345 343 346 346 344
328 330 332 329 328 329 329 330 324 324 331 332 331 331 330 329 326 326 327 329 332 334 336 336 334 336 336 337 341 341 342 343 341 341 341 343 346 344 343 344 346 343 342
326 329 327 330 329 329 327 325 323 327 329 332 333 332 332 330 328 327 328 329 331 333 334 335 335 334 336 336 339 341 341 341 341 342 343 344 346 344 342 341 341 342 341
325 324 325 320 322 323 324 324 325 327 327 330 333 333 332 331 331 329 328 329 330 331 333 334 335 334 335 336 337 339 341 341 341 340 343 343 344 341 337 337 337 338 341
321 321 323 320 322 326 324 325 327 328 328 331 332 331 331 331 331 330 329 329 329 331 332 333 333 334 333 335 335 334 341 340 340 344 342 343 340 336 333 330 333 333 339
320 321 322 325 320 326 326 329 331 329 331 331 331 330 330 329 329 329 330 329 329 329 330 331 334 332 333 333 334 331 340 340 342 344 341 340 336 335 333 333 334 333 337
321 325 325 324 320 320 322 328 329 330 329 329 329 328 328 328 328 329 329 329 329 329 329 329 331 333 331 332 330 331 337 339 343 343 341 339 337 335 332 331 333 335 338
320 319 320 321 322 319 320 322 324 323 320 322 325 326 327 327 328 329 329 328 328 328 328 328 328 332 330 331 333 332 334 340 344 343 340 338 333 337 336 334 334 334 338
318 319 319 320 319 322 323 323 320 319 320 322 325 326 326 327 325 328 328 326 328 329 329 328 327 331 330 330 332 332 334 340 342 342 339 337 334 337 338 335 334 334 338
319 319 320 321 323 323 323 323 323 324 324 323 323 324 323 325 326 327 327 327 327 327 327 328 328 331 331 330 330 330 335 340 342 341 338 336 337 338 333 328 333 334 337
320 319 319 323 324 324 324 324 325 325 324 322 323 323 323 324 325 324 325 325 325 326 326 327 329 331 331 331 329 328 334 340 342 340 340 335 334 337 335 331 332 333 334
321 319 318 324 325 325 325 325 325 325 324 323 323 324 323 323 325 325 323 323 324 325 326 326 325 327 330 332 330 326 330 341 341 340 340 337 335 337 327 329 327 332 333
320 319 323 324 325 326 326 325 325 326 325 324 324 324 324 324 324 325 324 323 324 325 326 328 326 329 331 332 329 328 331 340 341 340 341 337 337 336 332 331 332 332 335
319 324 326 325 327 327 326 326 326 326 325 325 324 324 325 324 325 323 323 324 324 326 327 328 327 329 331 331 330 330 333 339 341 342 341 336 336 337 332 334 334 335 336
319 326 325 327 328 328 327 327 327 327 326 325 324 324 325 326 324 324 323 324 324 326 326 327 327 328 331 330 329 330 334 338 341 341 342 338 336 330 330 335 338 337 338
322 326 325 326 328 328 329 328 327 328 327 326 325 325 325 325 326 325 324 323 324 325 327 327 328 329 330 330 329 330 335 338 339 340 339 338 334 334 334 327 334 338 338
324 325 325 326 328 328 329 329 328 328 328 328 327 326 326 326 327 327 327 326 327 327 327 326 327 328 329 329 329 329 337 338 339 339 339 337 329 329 328 330 333 335 336
323 324 325 327 328 328 328 328 328 329 329 328 327 326 327 327 327 327 328 327 327 327 327 327 327 327 328 329 329 330 337 337 338 338 335 336 331 330 331 333 333 334 334
322 325 324 327 328 327 329 328 328 328 330 327 325 319 326 327 327 328 328 328 327 326 327 328 328 328 328 329 329 333 336 337 337 335 335 333 331 327 330 330 330 334 335
323 325 326 325 326 325 328 329 329 329 328 328 323 323 324 326 327 329 328 328 327 327 328 328 329 329 329 329 332 334 335 334 335 334 332 330 329 328 331 331 332 332 334
321 323 326 325 324 324 328 330 329 329 328 323 325 325 324 323 327 328 328 328 327 327 328 329 329 329 330 331 332 333 333 333 334 333 329 329 330 331 330 331 331 332 333
321 323 324 325 325 327 331 331 331 331 328 330 327 326 326 326 326 328 327 327 328 327 329 330 330 330 332 332 332 331 333 334 331 333 332 329 330 331 331 331 331 331 331
321 322 324 326 328 329 330 328 330 331 330 329 331 329 326 326 325 327 328 328 329 328 331 331 331 331 330 333 332 333 332 332 331 331 331 330 330 329 330 331 331 331 331
321 323 325 327 327 330 330 328 328 330 332 331 330 330 329 330 329 328 328 329 330 330 331 331 332 332 332 331 333 332 331 329 330 329 330 327 328 329 331 331 332 330 330
322 322 324 327 325 329 330 329 328 328 329 328 329 328 328 329 330 330 328 327 330 331 331 330 331 333 333 333 330 332 328 331 329 329 330 328 325 329 331 331 331 331 331

GFSSE_925_thetae_009.txt.gz
Theta_e
333 337 332 329 328 328 328 332 334 334 337 337 333 327 323 321 321 326 327 328 330 333 335 335 334 336 337 337 343 344 342 343 345 345 346 342 342 345 346 343 344 350 346
328 333 331 329 328 329 331 333 334 333 339 339 335 331 330 324 323 325 327 328 330 332 334 337 335 334 337 336 341 343 344 342 342 343 344 343 342 345 345 342 348 347 345
327 330 333 328 327 328 330 331 333 336 340 337 336 333 332 331 329 326 328 328 329 331 334 337 336 335 336 337 338 342 343 343 342 343 342 344 345 344 344 343 346 342 344
327 330 329 332 324 323 329 331 329 333 335 336 336 335 334 333 332 331 330 330 329 330 332 335 336 336 335 337 337 341 343 341 342 342 342 344 346 344 343 343 343 341 343
327 326 328 325 322 326 330 327 325 326 327 331 331 333 335 334 334 333 332 331 330 329 331 333 335 336 335 337 337 338 341 340 341 341 341 343 346 344 341 339 339 341 341
323 323 325 323 320 320 329 333 329 329 330 333 331 332 332 332 332 332 331 332 331 330 331 333 334 334 334 335 336 337 337 340 341 342 341 344 344 342 338 337 336 335 336
322 322 323 325 323 320 327 338 337 336 333 334 333 333 333 332 332 331 331 331 331 330 328 331 333 335 334 335 335 337 334 339 343 343 343 343 341 338 335 332 330 333 331
323 324 325 325 323 320 320 322 325 326 327 329 329 330 330 329 329 328 329 330 331 331 329 329 330 332 334 332 334 334 332 337 342 344 342 341 339 335 332 331 329 327 333
323 322 322 322 323 321 321 322 322 321 319 319 320 325 327 327 328 329 329 330 330 331 330 329 329 330 333 331 332 335 334 335 341 343 341 339 338 337 333 331 331 331 335
322 322 322 321 320 322 324 326 324 323 322 322 323 325 326 327 327 326 328 329 330 329 329 328 329 329 331 330 330 333 335 333 342 342 340 339 338 336 336 335 333 334 336
323 322 322 322 323 325 326 325 325 327 327 326 326 326 325 326 326 327 329 328 330 327 329 328 330 328 331 330 330 331 336 338 342 342 340 338 338 336 335 336 334 331 334
323 323 321 322 327 328 327 325 326 326 327 326 325 325 325 325 326 327 327 327 328 329 329 328 325 330 330 331 332 331 331 337 341 341 341 337 336 335 335 334 333 333 335
324 323 321 324 328 329 328 327 326 326 327 326 325 324 324 324 325 326 326 325 327 327 327 327 326 326 324 329 332 330 326 336 339 340 340 336 337 336 332 331 333 330 330
324 322 325 328 329 330 329 327 326 327 327 326 326 327 325 326 325 325 326 326 325 326 327 328 327 323 324 330 333 330 325 336 340 341 338 337 338 334 330 331 331 333 334
324 323 328 329 331 331 329 329 328 327 327 327 325 326 326 327 327 325 325 324 324 325 327 326 328 326 330 331 333 331 326 336 339 342 340 336 337 336 333 331 329 330 333
322 326 328 330 330 329 329 329 328 328 328 327 326 325 325 327 327 326 327 325 326 324 326 328 329 328 329 333 332 330 330 337 339 342 342 338 337 333 331 329 329 332 333
323 327 329 328 328 328 328 330 329 328 328 328 327 327 326 327 328 328 326 326 327 326 327 329 329 329 331 332 330 330 331 337 339 341 341 338 336 334 333 332 332 333 334
324 327 329 328 328 328 329 329 330 330 331 330 329 323 326 327 327 329 327 327 325 326 326 328 327 328 330 331 330 330 332 338 339 340 340 337 336 334 331 332 335 331 334
324 327 328 329 329 329 329 330 331 332 332 330 325 323 322 328 327 328 330 328 328 327 328 327 328 328 330 330 328 330 335 338 339 339 339 337 335 331 332 330 329 331 331
324 328 328 328 330 330 330 330 332 332 331 331 327 322 322 327 328 329 330 330 329 328 329 328 328 329 329 329 328 334 337 338 338 338 337 334 334 331 327 326 327 329 330
323 328 329 328 329 328 330 331 331 331 329 329 329 325 327 327 328 328 331 329 329 329 330 330 327 328 329 329 329 336 337 337 336 335 331 331 330 328 332 330 328 328 331
324 326 328 328 329 330 332 333 332 331 330 329 330 329 329 328 328 329 330 328 328 329 330 331 330 329 329 330 331 334 336 336 335 334 334 332 331 330 328 327 329 330 330
323 326 327 328 331 333 333 333 333 333 332 333 331 330 330 329 329 329 329 328 328 328 329 330 331 330 331 333 332 333 334 336 333 332 332 332 329 329 331 329 330 329 331
323 326 327 329 332 333 332 331 333 334 334 333 333 331 330 330 330 330 329 329 328 327 328 330 330 330 330 332 333 334 333 332 334 333 331 331 330 330 330 331 329 331 331
322 326 328 329 331 333 332 331 331 333 333 334 332 330 330 330 330 330 330 329 330 329 331 332 332 333 330 331 334 334 334 332 331 330 332 330 331 331 331 331 331 331 328
322 326 327 329 329 332 332 331 332 332 332 331 328 328 329 329 330 330 330 331 331 332 332 332 333 332 332 334 333 332 333 332 330 331 329 329 329 330 330 332 330 330 329